{"data":{"norad_id":58882,"epoch":"2026-05-24T19:58:42.867840Z","epoch_age_seconds":85381,"freshness":"FRESH","line1":"1 58882U 24020G   26144.83244060 -.00000330  00000+0  13575-5 0  9995","line2":"2 58882  53.1624 328.4103 0001024  78.5440 281.5677 15.34395141129734","mean_motion":15.34395141,"eccentricity":0.0001024,"inclination_deg":53.1624,"raan_deg":328.4103,"arg_perigee_deg":78.544,"mean_anomaly_deg":281.5677,"bstar":1.3575e-6,"rev_number":12973,"period_min":93.848055270921,"perigee_km":462.01717869775,"apogee_km":463.41818573666,"semimajor_km":6840.8546822172,"source":"CELESTRAK","updated_at":"2026-05-25T13:38:18.784779Z"}}